Dewpoint
10 10 11 12 12 10 10 11 10 10 12 12 13 12 11 10 8 5 5 7 7 9 10 10 10 11 10 11 11 11 10 10 11 10 10 10 8 9 7 6 5 6 3
10 9 11 11 11 11 10 9 9 8 8 9 11 12 12 12 11 11 8 8 8 10 11 12 11 11 11 11 11 11 10 11 11 11 8 9 10 10 7 7 7 7 6
10 10 12 11 10 11 10 9 9 9 7 7 9 10 11 11 12 11 12 12 11 11 12 12 12 12 11 12 12 12 11 11 11 9 9 10 9 9 9 8 8 8 8
7 10 11 11 7 7 10 10 9 9 9 7 7 9 9 8 9 9 11 10 9 10 11 11 11 11 11 12 12 12 11 11 10 8 10 9 9 10 10 9 7 7 6
4 6 9 11 10 9 7 9 10 9 9 7 6 8 8 9 10 10 9 9 9 8 8 8 10 11 12 12 12 12 11 11 9 6 8 9 8 9 10 9 7 6 5
4 4 5 6 9 10 10 10 11 10 11 11 10 8 8 9 10 9 9 8 8 8 9 9 10 11 11 11 11 12 12 11 9 7 8 9 9 8 8 8 7 8 8
4 4 3 2 2 5 9 10 9 10 11 11 11 10 10 11 10 10 9 9 10 9 9 10 10 10 10 11 11 12 12 11 11 9 8 7 3 -1 -1 -0 2 7 7
2 2 1 1 1 2 4 5 8 9 10 10 11 10 11 11 11 11 10 10 10 10 10 10 10 10 10 10 11 12 12 10 9 8 7 -1 -2 -1 -2 -1 2 6 6
1 3 1 -0 1 1 3 3 3 3 3 8 9 9 9 9 9 10 10 10 9 9 9 9 9 9 9 12 11 11 11 8 7 3 -1 -1 -1 -1 -1 0 -0 1 5
-1 1 2 -0 1 1 1 2 3 1 1 2 4 8 9 9 9 9 9 9 8 9 9 9 10 10 11 11 10 8 8 5 2 1 -0 -1 1 2 2 0 -0 0 1
1 1 -1 -2 -2 -1 -2 0 2 1 1 2 3 5 6 7 7 7 7 7 8 8 9 10 11 11 11 9 9 7 5 5 2 -0 0 2 2 1 -0 -0 -0 0 1
2 2 2 -1 -1 -2 -2 0 1 1 1 2 4 3 3 3 4 5 5 6 7 8 9 10 11 11 10 9 8 7 2 0 1 3 3 1 0 -0 -0 -0 -0 0 1
-1 0 3 2 0 1 1 0 0 1 2 3 2 2 3 4 3 2 2 3 4 6 9 10 10 10 10 8 2 1 3 4 3 1 0 -0 -0 -0 -0 -0 -0 0 1
-1 -2 -2 0 3 2 2 2 2 2 3 3 4 3 2 1 1 1 2 3 6 9 10 10 9 8 4 0 2 4 4 3 2 0 -0 -0 -0 -0 -0 -0 -0 0 0
-1 -2 -2 -3 -3 -3 -0 2 3 3 3 3 2 2 2 2 2 2 2 4 8 9 10 9 6 1 1 4 4 3 1 0 0 -0 -0 -1 -1 -1 -0 -0 0 0 0
-0 -1 -2 -2 -2 -3 -3 -3 -3 -2 -0 2 3 3 3 3 2 2 3 4 6 6 4 1 1 3 5 3 2 0 0 0 -0 -0 -1 -1 -0 0 0 0 0 0 -0
0 -1 -1 -2 -2 -2 -2 -2 -2 -3 -3 -2 -1 1 3 3 3 3 2 2 2 1 0 2 5 5 3 1 1 1 0 -0 -0 -1 -1 -1 -0 0 0 0 -0 -0 -0
0 -0 -1 -2 -2 -2 -2 -2 -2 -1 -2 -2 -2 -1 1 3 3 3 2 2 1 1 2 4 5 3 1 1 1 1 0 -0 -1 -1 -1 -0 0 0 0 -0 -0 -0 -0
-1 -1 -1 -1 -1 -2 -2 -2 -2 -3 -2 -1 -1 -1 1 3 3 3 3 3 2 2 3 4 2 0 1 1 1 0 -0 -1 -1 -1 -1 -0 -0 -0 -0 -0 -0 -1 -1
-0 -1 -1 -1 -1 -2 -2 -2 -2 -2 -2 -2 -2 0 1 2 3 4 4 4 3 3 4 2 1 1 1 1 0 -0 -1 -1 -1 -1 -1 -1 -1 -1 -1 -1 -1 -1 -2
1 0 0 -0 -1 -1 -2 -2 -2 -3 -2 -2 -1 -0 2 3 4 4 4 4 4 4 2 1 1 1 1 0 -0 -0 -0 -1 -1 -1 -1 -1 -1 -1 -1 -1 -2 -7 -13
2 1 1 0 -0 -1 -1 -1 -2 -2 -2 -1 -2 -1 1 3 4 4 4 4 4 2 1 1 1 1 0 -0 0 0 0 -0 -1 -1 -1 -3 -8 -8 -7 -12 -19 -21 -20
1 1 1 0 0 1 2 1 -1 -0 0 0 -1 -0 2 3 4 4 4 3 2 1 1 1 1 0 0 0 0 0 -0 -1 -1 -1 -1 -4 -13 -19 -21 -20 -19 -21 -21
1 1 1 1 1 2 2 2 1 1 1 0 1 2 3 3 4 3 3 2 1 1 1 1 1 0 0 0 0 0 -0 -1 -1 -1 -1 -2 -7 -15 -22 -22 -20 -19 -20
1 1 1 1 1 2 2 2 2 2 2 2 3 3 3 3 3 3 2 2 1 1 1 1 1 0 0 0 0 0 -0 -1 -1 -1 -1 -1 -3 -10 -15 -21 -19 -19 -20
1 1 2 1 0 1 2 2 2 3 3 3 3 3 3 3 3 2 2 2 2 2 1 1 2 1 1 1 1 0 0 -1 -1 -1 -1 -2 -2 -6 -15 -17 -19 -20 -21
Wind_Speed
25 22 26 30 33 33 30 29 25 21 23 22 20 19 19 18 17 19 19 20 21 20 20 19 18 17 13 11 11 13 13 13 12 9 6 7 10 12 11 10 8 12 9
24 18 19 26 31 32 35 29 26 21 20 15 13 16 17 15 14 14 17 18 19 20 22 20 20 18 16 15 14 15 15 15 12 7 5 7 10 11 10 11 12 13 10
27 32 30 33 19 24 33 37 31 28 26 23 15 14 16 11 13 17 18 18 21 24 27 25 24 23 22 20 19 16 16 15 12 9 12 5 7 6 14 13 14 13 11
20 31 33 33 29 31 26 27 30 22 26 35 27 22 20 17 22 21 23 22 19 22 23 25 28 28 25 24 24 22 20 21 16 12 19 18 17 9 9 11 11 12 14
19 22 26 30 34 31 39 42 35 36 30 25 32 35 33 30 33 32 29 32 28 23 23 18 30 32 28 30 27 24 24 25 20 18 18 19 20 18 15 16 11 14 14
17 16 15 17 23 31 39 40 39 39 36 34 33 33 34 41 35 29 29 36 29 25 28 31 33 35 30 23 22 24 27 27 24 14 16 22 16 12 11 12 12 12 13
17 17 20 20 19 23 31 35 34 35 36 35 36 38 32 35 27 32 27 34 29 30 28 29 28 22 21 19 19 19 28 28 31 25 20 19 19 18 17 16 15 12 13
17 19 16 17 19 19 22 23 23 25 28 29 30 30 28 29 27 29 31 31 31 28 24 23 21 17 16 15 12 18 22 19 24 20 19 17 17 17 16 15 13 12 12
19 20 15 19 22 23 24 24 24 23 24 26 27 27 24 24 24 23 25 25 24 23 22 20 19 17 15 15 19 20 22 20 18 18 17 17 17 15 15 17 18 16 10
4 18 24 26 26 27 26 27 26 22 20 21 23 24 24 26 26 24 22 21 22 22 22 20 19 17 17 20 20 20 20 17 17 18 17 15 15 17 18 19 18 18 18
4 5 14 20 23 28 29 28 26 22 19 18 19 19 19 20 20 20 20 21 22 22 21 20 19 19 21 19 19 18 17 17 17 15 15 17 19 18 18 19 18 18 18
5 6 4 6 10 17 23 27 24 20 19 18 18 18 17 17 18 18 18 18 19 19 19 19 19 20 20 19 18 17 16 14 14 16 17 17 18 18 19 20 19 19 19
7 8 10 9 6 8 15 21 22 21 21 20 18 17 16 16 15 15 16 17 18 18 19 20 22 22 19 18 17 15 14 15 16 16 16 18 17 18 19 19 19 19 20
11 11 11 11 11 9 8 11 15 17 18 17 17 16 16 14 14 14 15 16 16 16 20 21 21 19 18 16 14 14 15 16 18 17 16 16 17 17 18 18 18 19 20
12 9 9 10 11 11 9 8 10 13 15 15 16 16 15 15 16 16 16 17 17 19 20 21 20 19 17 16 15 14 14 13 14 15 16 18 19 20 19 18 16 16 16
14 9 6 5 5 6 5 6 7 8 11 14 15 16 17 17 17 18 19 20 22 22 22 22 20 17 17 14 14 13 12 12 14 17 19 20 20 18 16 12 11 13 14
12 7 4 1 3 4 5 5 6 7 7 9 12 15 17 18 19 20 20 20 22 22 22 19 16 15 15 13 13 12 12 14 16 16 17 18 16 13 12 10 11 11 12
8 7 4 3 2 3 5 7 10 11 11 12 13 15 17 19 20 21 22 21 22 21 20 18 16 16 15 14 13 13 12 14 14 14 14 13 12 11 10 10 10 10 10
5 5 5 6 8 10 9 8 10 12 14 16 17 17 20 21 23 24 24 24 24 24 22 20 18 17 16 14 13 12 11 13 13 13 12 11 11 10 10 10 11 10 9
8 7 8 10 11 13 13 14 14 16 16 18 21 22 20 20 23 25 25 24 25 21 20 21 20 17 14 13 10 10 11 12 12 12 11 10 11 10 10 11 11 10 10
10 9 7 9 11 13 15 16 17 17 18 19 19 20 21 22 23 22 23 23 22 23 23 21 18 15 13 11 9 10 11 11 11 11 10 10 11 11 11 11 11 11 10
8 8 7 8 9 11 12 14 16 16 17 18 19 19 22 22 21 23 22 23 24 24 22 19 17 15 11 10 10 9 9 9 10 9 9 9 9 9 11 11 12 11 10
9 9 9 8 8 9 10 11 12 12 14 15 18 20 22 22 22 22 22 23 23 22 20 19 17 13 12 10 8 8 9 9 9 10 10 10 10 10 11 11 10 10 9
8 8 9 9 9 9 9 8 8 8 10 12 16 19 20 20 20 20 21 22 23 22 22 20 16 15 12 11 10 8 9 10 11 11 11 12 11 9 9 11 11 10 9
8 8 8 8 8 7 8 7 5 4 6 10 14 17 17 18 18 20 21 22 21 19 18 17 15 13 12 12 11 10 9 9 12 11 12 13 11 10 10 10 11 11 10
7 7 8 9 6 5 5 5 4 3 2 7 12 14 16 18 18 19 20 20 20 19 18 15 12 12 13 13 13 12 10 10 11 12 13 13 13 13 12 12 12 12 11
Wind_Direction
185 200 194 200 193 198 198 190 184 183 193 193 193 193 201 208 211 213 218 220 225 220 220 223 224 223 225 228 237 236 225 219 213 217 245 263 274 271 264 276 269 304 316
184 185 207 212 200 196 195 196 198 202 188 182 188 204 207 212 223 227 222 221 220 224 229 229 227 227 226 223 233 235 226 221 221 226 256 279 277 279 265 271 264 296 294
181 187 196 187 195 226 212 210 215 219 215 211 204 209 210 222 229 236 230 234 231 230 230 227 231 236 237 236 238 236 228 218 221 220 263 261 249 253 275 260 270 275 273
187 193 191 193 201 195 215 209 215 220 226 225 228 248 258 269 258 247 243 245 253 254 256 260 246 243 240 244 239 232 229 218 214 257 264 260 261 263 278 283 276 267 274
189 188 198 200 201 202 197 218 215 210 223 222 225 247 254 250 241 260 237 250 263 254 250 244 249 253 242 243 242 238 225 226 215 226 244 251 263 270 263 278 275 283 275
193 197 197 198 208 202 209 221 217 215 223 222 223 225 217 225 233 239 230 245 247 248 234 244 256 254 251 255 256 248 231 227 211 223 256 245 257 262 252 258 276 275 272
202 196 201 199 200 206 205 214 222 225 225 227 224 233 234 241 214 218 207 223 234 239 243 253 259 256 252 249 248 247 230 234 227 245 247 248 257 259 262 261 264 262 274
212 212 224 221 217 208 207 210 211 215 217 217 219 228 232 234 225 221 227 233 238 242 239 235 239 241 239 240 228 226 225 212 231 227 239 248 252 259 266 272 270 276 266
198 217 230 231 222 213 207 209 211 213 214 211 211 211 213 215 220 218 220 222 230 232 231 233 233 232 232 219 211 211 212 224 224 236 241 248 255 261 272 277 277 270 268
185 214 217 235 213 212 214 211 212 214 215 212 214 215 212 214 217 219 222 223 223 222 225 226 224 222 212 208 210 211 212 218 229 239 248 253 263 275 277 274 272 268 264
149 214 229 229 225 214 216 209 206 207 205 205 210 212 212 214 217 221 223 222 224 226 227 226 221 213 204 204 209 214 220 231 238 242 250 264 271 271 271 272 270 267 265
95 104 107 189 205 213 209 204 205 205 202 200 202 209 213 216 217 220 223 225 225 224 224 222 218 209 203 209 212 221 223 231 245 257 262 266 269 271 273 272 271 269 263
80 75 86 88 132 174 185 193 200 204 203 199 199 205 204 205 210 213 214 217 217 213 207 204 202 204 207 211 213 219 239 253 257 258 263 264 266 270 271 271 268 267 266
79 73 77 89 98 110 156 173 189 195 196 196 195 197 199 201 205 211 214 214 208 200 196 199 201 202 203 206 222 242 254 257 258 260 266 270 273 273 275 272 271 270 270
65 76 81 82 86 94 113 138 159 175 182 188 195 200 204 209 213 214 214 210 200 195 193 198 197 200 207 225 238 241 247 255 267 277 282 282 277 276 270 267 268 273 279
3 18 68 91 110 113 121 132 148 175 192 202 209 214 215 215 213 209 203 199 195 192 190 194 199 213 228 230 241 246 258 275 283 287 282 276 274 267 267 272 273 277 278
330 338 336 106 133 172 198 210 217 213 215 218 220 219 218 216 213 209 204 202 197 195 197 203 218 226 233 234 240 252 267 274 277 278 277 273 268 262 267 271 270 273 273
311 302 277 265 253 217 216 218 223 222 222 228 230 228 226 223 219 214 209 208 208 209 209 218 226 228 229 233 242 255 267 273 280 285 277 271 263 261 260 262 265 266 268
306 304 286 280 283 280 270 253 245 238 235 232 230 226 221 219 219 218 215 214 217 218 217 223 222 219 223 231 248 266 271 274 288 297 283 266 258 255 254 259 261 263 262
322 310 296 292 290 286 282 277 265 254 248 241 235 230 224 219 218 218 219 219 216 217 222 218 212 213 225 237 253 263 267 277 288 299 294 254 253 254 254 257 261 262 264
317 309 305 296 293 290 287 282 274 266 256 246 237 231 225 221 220 220 220 220 220 220 215 211 208 211 222 239 258 272 281 281 283 294 293 261 248 250 254 256 260 262 267
317 316 320 309 302 298 290 281 273 265 257 248 235 228 223 221 219 217 217 219 219 211 208 211 213 216 222 232 257 278 294 286 284 283 280 265 253 247 250 258 261 261 261
331 336 338 336 326 321 310 287 269 264 259 243 228 219 214 214 215 216 215 211 209 209 209 213 216 217 216 234 251 274 278 277 269 268 268 262 260 259 260 262 263 262 259
324 333 338 337 336 335 337 315 280 263 246 225 212 204 203 207 209 209 210 213 214 212 214 217 218 220 226 234 241 264 272 266 265 258 262 262 263 268 262 260 260 257 254
316 334 339 338 345 343 351 352 327 277 232 207 195 194 200 206 212 214 217 216 216 220 225 224 223 226 246 245 249 259 263 253 262 256 256 260 262 261 262 257 254 255 255
286 296 324 322 332 357 354 357 32 56 176 201 200 201 205 207 209 216 217 215 215 218 220 223 234 243 246 247 249 254 262 247 252 256 259 259 260 257 259 259 257 254 254
Height
1461 1464 1469 1472 1478 1482 1486 1489 1495 1500 1504 1509 1511 1514 1519 1524 1528 1531 1535 1539 1543 1546 1549 1551 1553 1554 1556 1557 1559 1560 1560 1561 1563 1564 1565 1564 1563 1563 1562 1562 1561 1560 1558
1454 1460 1466 1472 1476 1482 1485 1491 1495 1499 1501 1505 1508 1512 1517 1522 1525 1529 1534 1537 1540 1544 1547 1549 1551 1552 1554 1554 1554 1556 1557 1559 1562 1563 1563 1562 1564 1560 1560 1559 1559 1558 1557
1448 1453 1464 1468 1473 1479 1484 1490 1492 1496 1497 1500 1502 1510 1513 1517 1522 1527 1531 1534 1537 1540 1543 1545 1547 1550 1550 1551 1551 1553 1554 1557 1559 1560 1560 1559 1559 1559 1557 1556 1555 1556 1555
1448 1456 1459 1464 1463 1470 1480 1484 1487 1489 1492 1493 1496 1502 1506 1508 1519 1525 1529 1531 1533 1536 1539 1540 1542 1544 1545 1546 1546 1548 1550 1551 1552 1555 1558 1560 1559 1557 1555 1552 1550 1549 1550
1447 1447 1452 1460 1462 1472 1475 1479 1484 1486 1489 1490 1493 1504 1505 1513 1517 1519 1522 1526 1528 1531 1534 1535 1537 1538 1537 1539 1539 1541 1544 1546 1547 1546 1549 1553 1555 1555 1553 1552 1550 1546 1545
1444 1446 1450 1454 1458 1463 1471 1476 1478 1481 1485 1491 1497 1500 1502 1508 1511 1514 1513 1521 1522 1525 1528 1530 1530 1531 1531 1532 1534 1537 1539 1541 1543 1544 1544 1546 1549 1550 1549 1547 1546 1544 1542
1442 1445 1449 1451 1456 1460 1464 1467 1472 1475 1481 1486 1488 1495 1496 1502 1502 1509 1512 1515 1518 1518 1521 1524 1525 1525 1526 1528 1529 1531 1534 1537 1538 1540 1541 1542 1543 1544 1543 1542 1541 1540 1537
1437 1439 1444 1448 1452 1455 1459 1464 1467 1473 1476 1481 1483 1488 1493 1497 1501 1503 1506 1508 1512 1514 1516 1520 1520 1521 1522 1523 1526 1529 1530 1533 1534 1534 1537 1538 1538 1538 1538 1537 1538 1536 1534
1430 1437 1440 1445 1451 1455 1457 1463 1467 1469 1473 1476 1479 1483 1489 1494 1498 1497 1500 1503 1506 1509 1511 1514 1516 1517 1518 1521 1523 1525 1527 1530 1530 1531 1532 1532 1532 1533 1533 1534 1532 1531 1531
1429 1432 1437 1442 1446 1451 1455 1460 1465 1468 1470 1472 1474 1479 1484 1489 1491 1493 1495 1497 1500 1504 1507 1508 1510 1512 1515 1519 1521 1522 1524 1525 1527 1528 1528 1529 1528 1528 1528 1528 1527 1526 1525
1434 1436 1436 1437 1439 1444 1451 1455 1459 1462 1466 1468 1472 1475 1480 1483 1486 1487 1489 1492 1495 1497 1500 1503 1506 1509 1512 1515 1518 1520 1521 1522 1523 1523 1523 1523 1524 1523 1523 1522 1521 1521 1520
1437 1436 1435 1434 1437 1439 1444 1450 1454 1457 1461 1464 1468 1472 1476 1479 1481 1482 1484 1488 1491 1493 1495 1499 1503 1506 1509 1513 1515 1517 1518 1518 1519 1519 1518 1518 1518 1519 1518 1518 1516 1515 1515
1441 1438 1436 1435 1435 1439 1442 1445 1449 1453 1457 1462 1465 1469 1472 1475 1477 1480 1482 1485 1486 1488 1490 1495 1499 1502 1506 1509 1511 1513 1514 1514 1516 1516 1515 1514 1513 1512 1512 1511 1512 1510 1510
1440 1441 1439 1439 1440 1441 1444 1445 1447 1450 1455 1460 1463 1467 1470 1472 1475 1477 1479 1481 1482 1484 1488 1492 1495 1500 1503 1506 1508 1509 1510 1511 1513 1512 1510 1509 1507 1505 1505 1506 1506 1506 1505
1448 1445 1444 1443 1443 1444 1446 1449 1450 1453 1456 1459 1462 1465 1466 1468 1471 1474 1476 1479 1480 1484 1486 1490 1492 1498 1501 1503 1503 1505 1507 1508 1508 1506 1504 1504 1502 1501 1500 1500 1502 1500 1499
1449 1449 1449 1450 1448 1449 1451 1451 1451 1455 1456 1458 1460 1462 1463 1466 1469 1471 1473 1475 1479 1482 1485 1490 1493 1495 1497 1498 1500 1500 1502 1501 1502 1501 1501 1501 1498 1498 1494 1496 1496 1496 1495
1451 1450 1449 1450 1451 1451 1451 1453 1454 1454 1455 1456 1458 1460 1462 1464 1466 1469 1471 1475 1477 1480 1483 1486 1489 1492 1494 1494 1497 1498 1496 1498 1498 1497 1496 1496 1494 1494 1490 1491 1492 1492 1491
1452 1450 1449 1449 1449 1450 1453 1454 1456 1456 1456 1457 1459 1459 1460 1462 1464 1467 1470 1472 1475 1477 1478 1482 1485 1488 1491 1493 1494 1494 1493 1495 1494 1492 1491 1490 1491 1489 1488 1489 1488 1488 1487
1451 1450 1448 1448 1449 1449 1449 1450 1452 1452 1453 1454 1455 1456 1460 1459 1464 1467 1468 1470 1473 1476 1477 1482 1482 1483 1487 1488 1492 1491 1491 1492 1488 1486 1484 1485 1487 1486 1485 1485 1486 1485 1484
1450 1448 1447 1446 1445 1444 1445 1445 1446 1448 1449 1449 1451 1454 1454 1456 1458 1463 1464 1468 1472 1473 1474 1476 1477 1478 1483 1485 1486 1487 1487 1486 1484 1481 1480 1481 1483 1482 1482 1483 1482 1482 1482
1450 1448 1445 1443 1442 1441 1441 1441 1441 1442 1442 1443 1445 1445 1449 1451 1453 1456 1459 1463 1464 1468 1471 1475 1472 1475 1477 1481 1482 1482 1481 1479 1480 1478 1477 1477 1479 1479 1479 1479 1479 1479 1479
1449 1447 1445 1443 1441 1440 1439 1438 1437 1436 1436 1435 1436 1437 1441 1444 1448 1451 1453 1457 1463 1464 1466 1471 1470 1471 1471 1476 1478 1478 1476 1476 1475 1475 1475 1475 1475 1476 1476 1476 1476 1476 1476
1447 1445 1443 1441 1440 1439 1437 1435 1433 1431 1430 1430 1431 1434 1438 1442 1444 1447 1450 1454 1459 1460 1462 1465 1467 1466 1468 1471 1473 1473 1472 1472 1472 1472 1472 1472 1473 1473 1473 1473 1473 1473 1473
1445 1443 1441 1439 1437 1436 1433 1432 1430 1428 1428 1429 1430 1433 1436 1439 1441 1444 1448 1451 1454 1456 1459 1461 1461 1463 1465 1467 1469 1468 1468 1468 1468 1469 1469 1469 1470 1470 1470 1470 1470 1470 1471
1443 1442 1441 1439 1437 1435 1433 1430 1428 1427 1427 1428 1429 1432 1434 1437 1440 1443 1445 1448 1451 1453 1455 1456 1457 1460 1462 1464 1464 1465 1464 1464 1465 1465 1466 1466 1466 1467 1467 1467 1467 1467 1467
1441 1441 1440 1439 1437 1435 1433 1432 1429 1428 1428 1429 1430 1432 1434 1436 1439 1441 1442 1444 1446 1448 1450 1452 1454 1456 1458 1459 1460 1460 1460 1460 1461 1462 1462 1462 1463 1463 1464 1464 1464 1464 1464